ITHETF43 Weather Reports


time (UTC)temp
C
wind
direction
speed
KPH
gust
KPH
rain 1hr
cm
rain 24hr
cm
rain mn
cm
humidity
%
barometer
mb
20260510174551 11 42 6.4 19.3 0.00 0.00 0.00 57 1015.3
20260510173051 11 355 3.2 16.1 0.00 0.00 0.00 55 1015.4
20260510171551 11 340 6.4 14.5 0.00 0.00 0.00 53 1015.6
20260510170045 12 20 6.4 17.7 0.00 0.00 0.00 55 1015.7
20260510164547 12 36 8.0 16.1 0.00 0.00 0.00 56 1015.9
20260510163051 12 16 4.8 19.3 0.00 0.00 0.00 55 1015.9
20260510161545 12 5 4.8 14.5 0.00 0.00 0.00 56 1016.0
20260510160048 12 82 4.8 14.5 0.00 0.00 0.00 56 1016.2
20260510154557 12 355 6.4 16.1 0.00 0.00 0.00 53 1016.3
20260510153052 13 64 4.8 19.3 0.00 0.00 0.00 54 1016.3
20260510151548 13 360 4.8 22.5 0.00 0.00 0.00 51 1016.5
20260510150113 13 27 9.7 22.5 0.00 0.00 0.00 52 1016.7
20260510144544 14 61 6.4 19.3 0.00 0.00 0.00 52 1016.8
20260510143043 14 355 4.8 20.9 0.00 0.00 0.00 52 1016.8
20260510141549 13 154 4.8 19.3 0.00 0.00 0.00 53 1017.1
20260510140052 13 40 6.4 19.3 0.00 0.00 0.00 53 1017.4
20260510134557 13 66 6.4 16.1 0.00 0.00 0.00 55 1017.4
20260510133045 13 84 6.4 19.3 0.00 0.00 0.00 57 1017.4
20260510131549 13 109 3.2 20.9 0.00 0.00 0.00 58 1017.4
20260510130052 13 352 4.8 20.9 0.00 0.00 0.00 59 1017.7
20260510124555 13 5 8.0 22.5 0.00 0.00 0.00 58 1017.6
20260510123056 13 26 3.2 12.9 0.00 0.00 0.00 57 1017.8
20260510121552 12 77 4.8 17.7 0.00 0.00 0.00 60 1017.9
20260510120054 12 83 6.4 22.5 0.00 0.00 0.00 60 1018.1
20260510114553 12 175 4.8 22.5 0.00 0.00 0.00 61 1018.2
20260510113051 12 348 4.8 19.3 0.00 0.00 0.00 65 1018.4
20260510111553 11 332 6.4 17.7 0.00 0.00 0.00 67 1018.5
20260510110047 11 49 4.8 24.1 0.00 0.00 0.00 68 1018.6
20260510104549 11 360 4.8 14.5 0.00 0.00 0.00 68 1018.7
20260510103059 12 5 6.4 19.3 0.00 0.00 0.00 68 1018.7
20260510101544 12 74 6.4 16.1 0.00 0.00 0.00 68 1018.8
20260510100054 12 150 4.8 19.3 0.00 0.00 0.00 67 1018.8
20260510094604 12 341 6.4 19.3 0.00 0.00 0.00 70 1018.9
20260510093059 12 72 6.4 17.7 0.00 0.00 0.00 72 1018.9
20260510091550 11 0 4.8 20.9 0.00 0.00 0.00 74 1019.1
20260510090110 11 91 6.4 20.9 0.00 0.00 0.00 76 1019.1
20260510084542 10 34 4.8 14.5 0.00 0.00 0.00 79 1019.2
20260510083055 10 12 3.2 16.1 0.00 0.00 0.00 79 1019.3
20260510081546 10 105 4.8 12.9 0.00 0.00 0.00 79 1019.3
20260510080046 10 5 3.2 12.9 0.00 0.00 0.00 80 1019.3
20260510074551 10 5 3.2 11.3 0.00 0.00 0.00 80 1019.4
20260510073056 10 255 3.2 11.3 0.00 0.00 0.00 80 1019.3
20260510071543 10 18 3.2 14.5 0.00 0.00 0.00 80 1019.2
20260510070051 10 80 3.2 19.3 0.00 0.00 0.00 80 1019.1
20260510064551 10 70 4.8 17.7 0.00 0.00 0.00 82 1019.0
20260510063044 10 30 1.6 17.7 0.00 0.00 0.00 84 1018.8
20260510061543 10 43 3.2 14.5 0.00 0.00 0.00 87 1018.7
20260510060045 9 14 4.8 16.1 0.00 0.00 0.00 89 1018.6
20260510054550 9 75 4.8 11.3 0.00 0.00 0.00 91 1018.4
20260510053050 8 12 3.2 9.7 0.00 0.00 0.00 91 1018.4
20260510051601 8 13 3.2 9.7 0.00 0.00 0.00 91 1018.4
20260510050054 8 47 3.2 8.0 0.00 0.00 0.00 91 1018.6
20260510044602 8 36 3.2 6.4 0.00 0.00 0.00 90 1018.6
20260510043045 8 12 1.6 6.4 0.00 0.00 0.00 90 1018.8
20260510041551 8 59 0.0 4.8 0.00 0.00 0.00 90 1018.8
20260510040051 8 56 0.0 8.0 0.00 0.00 0.00 90 1018.7
20260510034546 8 49 1.6 9.7 0.00 0.00 0.00 90 1018.7
20260510033043 8 30 1.6 4.8 0.00 0.00 0.00 90 1018.9
20260510031553 8 36 1.6 6.4 0.00 0.00 0.00 90 1019.1
20260510030052 8 11 3.2 6.4 0.00 0.00 0.00 89 1018.9
20260510024553 8 355 1.6 6.4 0.00 0.00 0.00 89 1019.2
20260510023049 8 25 1.6 9.7 0.00 0.00 0.00 89 1019.2
20260510021544 8 24 1.6 8.0 0.00 0.00 0.00 89 1019.2
20260510020044 8 54 4.8 12.9 0.00 0.00 0.00 89 1019.2
20260510014556 8 32 3.2 8.0 0.00 0.00 0.00 88 1019.3
20260510013052 9 36 3.2 11.3 0.00 0.00 0.00 87 1019.4
20260510011551 9 22 3.2 9.7 0.00 0.00 0.00 87 1019.4
20260510010045 10 38 3.2 8.0 0.00 0.00 0.00 87 1019.3
20260510004556 10 360 1.6 6.4 0.00 0.00 0.00 87 1019.3
20260510003057 10 51 1.6 12.9 0.00 0.00 0.00 87 1019.3
20260510001551 10 38 3.2 11.3 0.00 0.00 0.00 87 1019.2
20260510000051 10 59 3.2 8.0 0.00 0.00 0.00 87 1019.2
20260509234553 10 49 1.6 9.7 0.00 0.00 0.00 87 1019.5
20260509233054 10 360 3.2 6.4 0.00 0.00 0.00 87 1019.8
20260509231545 10 22 1.6 4.8 0.00 0.00 0.00 87 1019.7
20260509230047 10 0 0.0 4.8 0.00 0.00 0.00 87 1019.7
20260509224552 10 355 1.6 6.4 0.00 0.00 0.00 87 1019.5
20260509223052 10 55 1.6 8.0 0.00 0.00 0.00 86 1019.4
20260509221542 10 0 3.2 6.4 0.00 0.00 0.00 85 1019.3
20260509220050 10 78 1.6 11.3 0.00 0.00 0.00 84 1019.3
20260509214600 11 37 1.6 9.7 0.00 0.00 0.00 82 1019.2
20260509213119 11 49 1.6 9.7 0.00 0.00 0.00 80 1019.1
20260509211554 11 18 0.0 14.5 0.00 0.00 0.00 78 1019.1
20260509204549 12 33 1.6 9.7 0.00 0.00 0.00 72 1018.9
20260509203053 12 84 3.2 8.0 0.00 0.00 0.00 67 1018.9
20260509201546 13 57 1.6 8.0 0.00 0.00 0.00 65 1018.9
20260509194553 14 30 1.6 8.0 0.00 0.00 0.00 56 1018.7
20260509193053 15 51 1.6 4.8 0.00 0.00 0.00 52 1018.5
20260509191543 15 74 1.6 6.4 0.00 0.00 0.00 50 1018.2
20260509190045 15 67 1.6 14.5 0.00 0.00 0.00 48 1018.0
20260509184555 16 46 3.2 11.3 0.00 0.00 0.00 46 1018.0
20260509183051 16 34 3.2 12.9 0.00 0.00 0.00 43 1017.9
20260509181558 16 120 1.6 11.3 0.00 0.00 0.00 42 1017.9
20260509180050 17 111 4.8 14.5 0.00 0.00 0.00 40 1017.9